SCP
0 0 0 -0 -0 -0 0 0 -0 0 0 0 0 0 0 0 0 0 0 0 0 0 -0 0 0 -0 0 0 0 0 0 0 0 0 0 0 0 0 0 0 0 0 0 0 0 0 0 0 0
0 0 -0 -0 0 0 0 -0 -0 -0 0 0 0 0 0 0 0 0 0 0 0 0 -0 0 -0 -0 -0 -0 0 0 0 0 0 0 0 0 0 0 0 0 0 0 0 0 0 0 0 0 0
0 0 -0 -0 0 0 0 -0 -0 0 0 0 0 0 0 0 0 -0 0 0 -0 0 -0 0 -0 0 0 0 0 0 0 0 0 0 0 0 0 0 0 0 0 0 0 0 0 0 0 0 0
0 -0 0 0 0 0 -0 -0 0 0 0 0 0 -0 0 0 0 -0 -0 0 -0 0 -0 0 0 0 0 0 0 0 0 0 0 0 0 0 0 0 0 0 0 0 0 0 0 0 0 0 -0
0 0 0 0 -0 0 -0 0 0 0 0 0 -0 -0 0 0 -0 -0 0 0 0 0 -0 0 0 0 0 0 0 0 0 0 0 0 0 0 0 0 0 -0 -0 -0 0 0 0 0 0 0 0
0 0 0 0 -0 0 0 0 0 -0 -0 0 -0 0 0 0 -0 -0 0 0 0 0 -0 0 0 0 0 0 0 0 0 0 0 0 0 0 0 0 0 0 0 -0 -0 0 0 0 0 0 0
-0 -0 -0 -0 -0 0 -0 0 -0 0 -0 -0 -0 0 0 0 0 0 0 0 0 0 0 0 0 0 0 0 0 0 0 0 0 0 0 0 0 0 0 0 0 0 -0 -0 -0 0 0 0 0
0 0 0 0 -0 0 -0 -0 0 -0 0 0 -0 0 0 0 0 0 0 0 0 0 0 0 0 0 0 0 0 0 0 0 0 0 0 0 0 0 0 0 0 0 0 -0 -0 -0 -0 0 0
0 0 0 0 0 0 0 0 -0 -0 0 0 -0 0 0 -0 0 0 0 0 0 0 0 0 0 0 0 0 0 0 0 0 0 0 0 0 0 0 0 0 0 0 0 0 0 -0 0 -0 0
0 0 0 0 0 0 0 0 0 0 0 0 0 0 -0 -0 0 0 0 0 0 0 0 0 0 0 0 0 0 0 0 0 0 0 0 0 0 0 0 0 0 0 0 0 0 -0 0 0 -0
-0 0 -0 -0 0 0 0 0 0 0 0 0 -0 -0 -0 0 0 0 0 0 0 0 0 0 0 0 0 0 0 0 0 0 0 0 0 0 0 0 0 0 0 0 0 0 0 0 0 -0 -0
0 0 0 0 -0 0 0 0 0 0 0 -0 -0 -0 -0 -0 -0 0 0 0 0 0 0 0 0 0 0 0 0 0 0 0 0 0 0 0 0 0 0 0 0 0 0 0 0 0 -0 -0 -0
0 0 0 0 0 0 0 0 -0 -0 -0 -0 -0 -0 -0 -0 -0 0 0 0 0 0 0 0 0 0 0 0 0 0 0 0 0 0 0 0 0 0 0 0 0 0 0 0 0 0 0 0 -0
0 0 0 0 0 0 0 -0 -0 -0 -0 -0 -0 -0 -0 -0 -0 0 0 0 0 0 0 0 0 0 0 0 0 0 0 0 0 0 0 0 0 0 0 0 0 0 0 0 0 0 0 0 0
0 0 0 0 0 0 0 -0 -0 -0 -0 -0 -0 -0 -0 -0 -0 0 0 0 0 0 0 0 0 0 0 0 0 0 0 0 0 0 0 0 0 0 0 0 0 0 0 0 0 0 0 0 0
0 0 0 0 0 0 0 -0 -0 -0 -0 -0 -0 -0 -0 -0 0 0 0 0 0 0 0 0 0 0 0 0 0 0 0 0 0 0 0 0 0 0 0 0 0 0 0 0 0 0 0 0 0
0 0 -0 0 0 0 0 0 0 -0 -0 -0 -0 -0 -0 0 0 0 0 0 0 0 0 0 0 0 0 0 0 0 0 0 0 0 0 0 0 0 0 0 0 0 0 0 0 0 0 0 0
-0 -0 -0 -0 -0 -0 -0 -0 -0 -0 -0 -0 -0 -0 0 -0 0 0 0 0 0 0 0 0 0 0 0 0 0 0 0 0 0 0 0 0 0 0 0 0 0 0 0 0 0 0 0 0 0
0 -0 -0 0 0 -0 -0 -0 -0 0 -0 -0 -0 0 0 0 0 0 0 0 0 0 0 0 0 0 0 0 0 0 0 0 0 0 0 0 0 0 0 0 0 0 0 0 0 0 0 0 0
-0 -0 0 0 -0 -0 -0 -0 -0 0 0 -0 0 0 0 0 0 0 0 0 0 0 0 0 0 0 0 0 0 0 0 0 0 0 0 0 0 0 0 0 0 0 0 0 0 0 0 0 0
0 0 -0 0 -0 -0 0 0 0 0 -0 -0 0 0 0 0 0 0 0 0 0 0 0 0 0 0 0 0 0 0 0 0 0 0 0 0 0 0 0 0 0 0 0 0 0 0 0 0 0
0 -0 0 0 0 0 -0 0 0 0 0 0 0 0 0 0 0 0 0 0 0 0 0 0 0 0 0 0 0 0 0 0 0 0 0 0 0 0 0 0 0 0 0 0 0 0 0 0 0
0 0 0 0 0 0 0 0 0 0 0 0 0 0 0 0 0 0 0 0 0 0 0 0 0 0 0 0 0 0 0 0 0 0 0 0 0 0 0 0 0 0 0 0 0 0 0 0 0
-0 0 -0 0 0 0 0 0 0 0 0 0 0 0 0 0 0 0 0 0 0 0 0 0 0 0 0 0 0 0 0 0 0 0 0 0 0 0 0 0 0 0 0 0 0 0 0 0 0
-0 -0 0 0 0 0 0 0 0 0 0 0 0 0 0 0 0 0 0 0 0 0 0 0 0 0 0 0 0 0 0 0 0 0 0 0 0 0 0 0 0 0 0 0 0 0 0 0 0
0 0 -0 0 0 0 0 0 0 0 0 0 0 0 0 0 0 0 0 0 0 0 0 0 0 0 0 0 0 0 0 0 0 0 0 0 0 0 0 0 0 0 0 0 0 0 0 0 0
0 0 0 0 0 0 0 0 0 0 0 0 0 0 0 0 0 0 0 0 0 0 0 0 0 0 0 0 0 0 0 0 0 0 0 0 0 0 0 0 0 0 0 0 0 0 0 0 0
0 -0 0 0 0 0 0 0 0 0 0 0 0 0 0 0 0 0 0 0 0 0 0 0 0 0 0 0 0 0 0 0 0 0 0 0 0 0 0 0 0 0 0 0 0 0 0 0 0
0 0 0 0 0 0 0 0 0 0 0 0 0 0 0 0 0 0 0 0 0 0 0 0 0 0 0 0 0 0 0 0 0 0 0 0 0 0 0 0 0 0 0 0 0 0 0 0 0
0 0 0 0 0 0 0 0 0 0 0 0 0 0 0 0 0 0 0 0 0 0 0 0 0 0 0 0 0 0 0 0 0 0 0 0 0 0 0 0 0 0 0 0 0 0 0 0 0
Wind_Speed_500mb
13 23 22 16 5 3 13 7 15 10 9 16 15 25 24 28 11 8 32 20 22 15 8 7 16 16 15 16 18 16 23 23 23 23 21 22 24 27 27 23 27 28 31 27 31 31 32 33 33
15 11 18 12 7 8 5 13 24 19 22 13 13 9 18 11 15 28 30 24 18 16 8 1 10 10 11 14 18 18 23 16 17 19 21 23 24 26 24 25 27 26 28 27 29 30 31 32 30
16 14 11 6 6 11 7 27 20 22 11 6 10 19 14 11 18 16 16 29 16 15 14 4 3 6 9 10 13 21 16 18 19 21 20 22 25 25 24 25 26 25 27 28 30 30 30 30 32
12 10 15 6 14 13 20 22 27 20 11 6 9 21 18 17 11 16 30 24 14 15 11 4 4 3 4 9 13 13 16 17 20 21 22 22 21 24 23 26 26 26 26 26 27 28 32 32 33
13 12 8 12 21 14 22 27 17 13 11 13 5 13 18 20 18 20 28 21 18 15 9 8 4 4 6 8 9 10 14 17 19 21 21 20 20 21 25 24 25 27 29 28 28 31 33 34 35
9 10 10 5 22 16 20 15 10 16 11 9 8 22 13 15 21 26 25 20 17 21 10 6 3 5 5 5 6 9 12 15 18 20 20 19 20 21 23 25 27 28 30 31 31 32 33 34 35
11 8 10 9 20 11 15 10 4 10 10 15 5 8 22 23 26 26 23 20 17 16 20 3 3 3 2 2 5 10 12 13 16 18 19 18 18 20 23 26 26 27 29 30 30 31 30 34 36
10 6 4 11 10 9 16 10 8 4 12 12 6 4 17 32 33 27 25 22 21 16 14 11 9 4 7 5 5 9 9 10 12 16 19 17 19 23 24 24 23 24 26 27 29 30 33 35 38
7 6 4 11 6 12 17 9 4 4 10 9 6 6 18 31 35 33 29 23 21 17 17 15 10 9 10 13 8 8 6 6 7 9 14 18 13 17 19 18 20 20 19 22 24 26 30 30 30
5 6 12 16 20 10 12 8 22 7 14 14 14 13 27 29 36 37 34 29 23 21 19 16 13 11 11 14 10 9 8 7 9 9 10 7 8 9 13 15 15 19 21 23 24 27 27 32 34
10 9 7 15 15 10 5 4 4 8 10 23 35 32 37 34 35 33 29 25 22 18 19 18 17 16 12 11 10 8 5 3 3 5 6 5 6 10 13 14 15 16 18 19 21 23 25 30 30
5 9 11 5 3 2 3 4 4 20 10 4 9 36 38 39 38 36 32 29 27 27 24 21 18 17 14 14 9 10 10 5 6 2 4 4 4 5 7 9 11 14 15 17 19 21 23 24 23
9 9 3 5 3 4 8 12 16 18 18 18 15 27 35 34 35 34 33 30 30 30 29 25 23 19 17 16 14 15 12 10 9 8 5 6 4 5 6 9 11 12 15 16 17 20 20 22 23
4 2 9 7 8 9 7 19 5 5 29 27 27 31 31 37 38 35 38 36 36 32 32 27 25 24 22 21 21 18 15 14 13 12 10 8 8 6 6 9 10 12 14 14 16 18 19 18 19
4 9 17 19 16 3 4 11 18 22 23 38 29 31 34 36 37 42 42 40 40 37 34 31 28 26 26 24 25 21 20 18 17 16 14 14 11 11 9 8 10 10 11 12 13 14 15 15 16
9 11 7 12 15 6 0 9 28 28 28 34 35 34 38 39 41 41 42 43 41 39 38 38 36 33 28 28 29 27 25 21 21 20 19 17 15 14 13 11 12 11 12 11 12 13 13 14 15
11 7 10 11 14 6 10 9 19 26 27 31 37 38 42 40 40 43 46 47 47 44 42 43 40 37 33 32 33 31 29 26 24 24 23 22 20 18 16 16 14 13 13 12 12 14 15 17 17
14 12 15 11 10 13 16 23 26 38 42 42 38 39 42 43 46 47 49 48 47 46 44 42 45 40 39 37 36 37 34 33 29 27 27 26 25 23 20 20 18 17 15 14 14 15 16 17 20
12 13 18 10 9 6 14 19 18 27 53 44 41 40 43 43 38 44 47 50 49 48 50 50 50 47 43 44 43 42 40 36 34 33 31 30 30 28 25 24 23 21 19 19 17 17 17 17 20
13 17 13 8 5 5 17 31 25 8 8 53 49 44 39 38 37 42 47 52 54 54 55 54 57 54 51 49 46 44 42 40 38 36 36 34 33 33 31 29 27 25 24 22 20 18 17 16 18
14 7 10 11 20 15 16 11 7 5 2 10 14 40 40 36 39 41 46 50 51 55 54 55 54 58 59 56 53 50 46 44 46 45 40 36 35 34 35 33 31 29 29 26 24 24 21 19 15
10 12 10 15 15 6 10 8 6 10 12 11 10 19 29 33 34 37 44 49 52 49 48 54 55 55 60 61 63 63 61 58 53 48 44 43 41 40 38 36 35 35 33 32 27 26 24 22 19
5 7 8 9 12 12 4 0 3 13 13 12 10 15 20 31 30 36 38 46 48 44 46 48 55 59 60 63 67 66 67 62 58 53 50 47 44 42 40 39 38 38 36 35 33 29 30 27 25
13 9 14 9 6 2 6 8 3 5 9 11 16 7 10 19 28 35 36 39 44 40 41 45 52 61 63 65 69 72 70 68 65 59 58 53 47 44 44 43 41 40 40 38 36 35 36 34 32
11 10 1 2 2 2 7 5 12 11 12 9 8 14 9 13 23 25 28 31 31 40 43 48 55 61 65 70 73 76 76 73 72 68 65 61 57 53 48 45 45 43 42 42 41 41 39 37 36
10 7 4 2 6 7 6 6 8 9 12 6 8 11 12 16 15 18 15 13 17 28 37 47 55 61 63 69 75 78 79 79 77 75 72 73 68 61 53 49 46 45 43 44 45 46 44 43 42
4 4 5 5 1 4 8 9 11 6 9 3 3 15 22 21 20 18 16 18 21 23 30 36 43 48 53 58 64 72 76 80 79 76 76 78 75 68 64 57 51 48 46 46 46 47 47 46 45
3 6 1 3 4 7 10 5 5 3 9 9 4 12 21 25 26 28 26 21 27 42 45 44 42 41 44 49 54 59 67 73 76 74 75 76 76 74 70 66 59 53 50 50 50 50 49 50 49
4 3 5 0 2 1 7 9 2 8 13 12 16 12 22 32 37 40 44 43 54 58 50 46 39 38 40 43 47 50 57 65 70 73 71 70 70 71 72 70 66 61 57 54 55 55 54 55 52
4 6 1 8 2 2 6 12 6 12 12 3 16 22 24 24 37 48 54 59 55 53 54 47 36 35 34 36 40 46 50 55 64 68 67 64 65 65 68 69 70 70 64 61 60 60 59 58 57
Wind_Direction_500mb
330 3 331 297 270 219 53 76 112 113 100 66 52 42 93 50 18 101 149 136 132 120 46 12 102 92 87 79 76 71 67 52 49 53 47 47 44 44 44 35 32 29 31 32 24 29 29 31 26
347 10 304 267 244 88 24 130 73 71 97 94 64 356 47 81 62 123 134 141 135 114 155 262 105 96 66 68 70 65 58 54 49 45 49 47 48 47 43 37 38 40 33 33 29 29 31 33 32
343 330 288 237 335 36 93 87 98 101 96 87 116 54 43 80 101 119 173 142 153 138 210 230 103 55 49 53 59 60 54 48 46 54 51 49 52 46 38 38 46 41 37 31 31 25 32 31 29
319 266 259 236 134 44 80 95 115 124 100 51 103 94 89 96 114 183 142 134 144 119 240 186 120 76 51 44 59 64 46 38 37 39 38 51 55 54 41 42 42 38 39 35 32 31 31 32 34
298 273 260 241 93 95 67 114 150 103 104 117 341 100 100 135 150 156 137 147 137 158 260 146 122 107 65 56 60 49 34 35 43 40 35 41 39 40 37 39 41 40 40 40 38 41 41 40 40
284 241 276 359 87 84 92 117 91 71 107 94 152 110 119 183 164 152 147 153 159 147 215 233 145 79 55 40 21 19 30 35 38 39 37 36 33 35 38 40 40 39 40 42 42 43 46 46 43
287 300 296 19 107 141 119 127 134 104 114 96 67 99 145 160 177 163 153 159 166 172 178 262 98 64 57 360 7 11 22 33 35 36 37 41 42 41 42 41 39 40 40 39 39 44 50 53 49
317 281 302 22 133 89 111 120 46 331 70 118 137 79 158 175 178 166 167 172 179 183 175 182 244 20 2 346 14 6 15 31 38 36 33 33 41 33 43 38 39 40 40 39 37 37 40 40 42
292 278 88 62 29 92 126 150 131 168 126 121 112 69 150 178 176 172 177 185 192 186 190 203 203 197 181 283 331 345 30 20 46 48 42 42 34 11 25 31 38 39 41 44 42 40 42 42 41
300 354 35 26 30 62 141 258 142 170 180 155 142 127 171 181 180 184 185 192 201 197 191 207 209 218 208 221 296 329 342 4 19 23 29 49 22 16 21 30 36 36 35 38 37 38 38 38 35
14 23 87 51 43 1 128 232 163 204 231 204 190 178 187 188 185 192 193 200 210 217 210 214 214 222 226 231 276 296 305 321 347 7 10 24 24 9 10 10 16 21 25 30 35 36 36 36 29
190 67 8 76 71 316 264 305 189 223 268 136 109 203 195 192 195 194 197 198 207 215 223 220 226 222 227 239 262 283 291 292 284 324 325 332 355 350 356 6 11 17 20 28 33 33 33 35 28
22 105 98 128 159 258 302 264 252 270 221 216 184 194 198 199 202 199 201 202 209 220 229 226 225 228 228 235 248 249 264 271 268 282 275 292 295 316 340 353 357 5 14 19 28 31 28 29 26
57 170 145 175 201 245 262 277 177 252 207 205 195 196 202 205 202 202 201 204 208 217 238 235 230 225 229 236 245 249 248 258 261 264 269 268 277 293 313 320 341 351 3 8 21 21 17 24 20
207 257 178 191 211 236 280 247 230 223 188 199 203 200 204 208 207 208 208 207 212 215 229 241 239 231 232 236 246 248 256 256 259 260 263 266 270 276 284 295 312 334 343 355 6 11 9 12 8
237 207 194 134 168 174 144 290 193 180 181 198 208 211 209 213 210 211 214 209 214 213 219 237 238 240 234 241 246 254 253 254 256 258 260 261 262 265 272 277 289 315 321 337 350 354 357 356 353
214 310 57 153 187 144 203 307 126 167 185 208 212 212 213 211 214 213 212 216 211 214 221 232 238 239 244 241 247 249 252 253 253 254 258 260 261 263 265 275 282 294 304 316 329 335 338 341 344
343 351 345 325 148 201 244 249 248 222 198 209 216 215 214 212 214 215 213 219 218 219 217 232 243 244 241 246 247 252 252 254 254 255 256 260 263 263 264 267 269 278 285 292 308 318 325 332 338
318 311 296 358 91 319 254 265 268 264 195 205 215 226 216 218 220 222 216 217 222 220 222 223 239 247 244 243 247 249 255 258 256 255 259 258 263 265 266 265 267 272 272 278 293 299 313 323 327
294 287 329 58 117 237 277 286 277 247 203 208 206 218 230 214 213 217 218 221 225 229 230 230 235 243 248 249 253 255 257 259 262 261 257 256 259 261 265 264 263 265 270 274 278 288 299 308 312
312 24 9 320 318 253 286 272 131 128 216 281 238 216 220 222 210 214 220 227 233 236 237 241 242 243 247 250 250 251 251 250 254 259 262 261 260 262 262 263 262 262 264 268 270 277 286 289 298
307 20 339 318 344 297 16 299 127 150 145 199 225 224 219 226 219 219 223 229 241 251 248 247 252 250 249 250 249 249 252 253 258 261 266 267 264 263 264 262 260 260 262 265 266 269 275 280 283
349 354 299 303 296 296 132 48 162 151 95 97 139 198 218 222 223 221 227 238 250 258 259 254 254 256 254 250 253 254 253 256 258 256 257 261 262 260 260 263 262 260 259 260 264 264 269 274 277
309 261 224 239 243 267 71 55 291 70 84 126 136 146 194 217 219 223 231 232 248 263 266 264 259 258 257 254 254 256 257 258 257 256 257 259 262 263 261 262 263 261 259 259 260 261 261 267 271
241 284 39 314 309 175 90 336 254 128 142 100 100 149 185 207 206 211 214 230 239 250 262 267 267 265 259 257 256 257 260 259 259 259 258 257 259 261 266 263 263 263 261 260 260 261 262 263 264
329 341 78 196 344 305 154 238 237 132 146 186 225 205 191 187 189 187 194 216 253 260 263 267 269 270 264 261 260 260 260 260 260 259 257 259 261 264 266 266 263 262 259 258 258 259 262 263 265
13 32 0 312 17 330 234 236 90 104 129 69 278 216 221 213 212 212 225 251 278 296 298 286 279 277 272 268 265 263 261 260 260 259 258 258 261 262 263 263 264 262 260 260 260 260 262 263 264
297 303 313 264 12 302 308 312 248 211 107 127 189 236 246 239 238 240 251 279 286 299 304 293 287 282 280 276 271 266 264 264 264 263 260 258 259 260 259 260 261 263 261 259 260 262 262 261 264
168 186 226 151 51 190 325 278 1 49 73 39 359 326 266 256 252 256 267 273 288 297 299 292 281 281 281 280 278 272 266 265 265 264 262 260 260 258 257 257 259 260 261 261 259 262 264 262 262
325 314 335 112 176 292 150 274 123 91 88 280 277 284 288 275 261 265 268 281 293 288 292 296 288 287 288 283 276 275 270 264 263 263 264 262 259 261 259 258 257 257 259 260 260 261 262 263 263
Wind_Speed_850mb
13 23 22 16 5 3 13 7 15 10 9 16 15 25 24 28 11 8 32 20 22 15 8 7 16 16 15 16 18 16 23 23 23 23 21 22 24 27 27 23 27 28 31 27 31 31 32 33 33
15 11 18 12 7 8 5 13 24 19 22 13 13 9 18 11 15 28 30 24 18 16 8 1 10 10 11 14 18 18 23 16 17 19 21 23 24 26 24 25 27 26 28 27 29 30 31 32 30
16 14 11 6 6 11 7 27 20 22 11 6 10 19 14 11 18 16 16 29 16 15 14 4 3 6 9 10 13 21 16 18 19 21 20 22 25 25 24 25 26 25 27 28 30 30 30 30 32
12 10 15 6 14 13 20 22 27 20 11 6 9 21 18 17 11 16 30 24 14 15 11 4 4 3 4 9 13 13 16 17 20 21 22 22 21 24 23 26 26 26 26 26 27 28 32 32 33
13 12 8 12 21 14 22 27 17 13 11 13 5 13 18 20 18 20 28 21 18 15 9 8 4 4 6 8 9 10 14 17 19 21 21 20 20 21 25 24 25 27 29 28 28 31 33 34 35
9 10 10 5 22 16 20 15 10 16 11 9 8 22 13 15 21 26 25 20 17 21 10 6 3 5 5 5 6 9 12 15 18 20 20 19 20 21 23 25 27 28 30 31 31 32 33 34 35
11 8 10 9 20 11 15 10 4 10 10 15 5 8 22 23 26 26 23 20 17 16 20 3 3 3 2 2 5 10 12 13 16 18 19 18 18 20 23 26 26 27 29 30 30 31 30 34 36
10 6 4 11 10 9 16 10 8 4 12 12 6 4 17 32 33 27 25 22 21 16 14 11 9 4 7 5 5 9 9 10 12 16 19 17 19 23 24 24 23 24 26 27 29 30 33 35 38
7 6 4 11 6 12 17 9 4 4 10 9 6 6 18 31 35 33 29 23 21 17 17 15 10 9 10 13 8 8 6 6 7 9 14 18 13 17 19 18 20 20 19 22 24 26 30 30 30
5 6 12 16 20 10 12 8 22 7 14 14 14 13 27 29 36 37 34 29 23 21 19 16 13 11 11 14 10 9 8 7 9 9 10 7 8 9 13 15 15 19 21 23 24 27 27 32 34
10 9 7 15 15 10 5 4 4 8 10 23 35 32 37 34 35 33 29 25 22 18 19 18 17 16 12 11 10 8 5 3 3 5 6 5 6 10 13 14 15 16 18 19 21 23 25 30 30
5 9 11 5 3 2 3 4 4 20 10 4 9 36 38 39 38 36 32 29 27 27 24 21 18 17 14 14 9 10 10 5 6 2 4 4 4 5 7 9 11 14 15 17 19 21 23 24 23
9 9 3 5 3 4 8 12 16 18 18 18 15 27 35 34 35 34 33 30 30 30 29 25 23 19 17 16 14 15 12 10 9 8 5 6 4 5 6 9 11 12 15 16 17 20 20 22 23
4 2 9 7 8 9 7 19 5 5 29 27 27 31 31 37 38 35 38 36 36 32 32 27 25 24 22 21 21 18 15 14 13 12 10 8 8 6 6 9 10 12 14 14 16 18 19 18 19
4 9 17 19 16 3 4 11 18 22 23 38 29 31 34 36 37 42 42 40 40 37 34 31 28 26 26 24 25 21 20 18 17 16 14 14 11 11 9 8 10 10 11 12 13 14 15 15 16
9 11 7 12 15 6 0 9 28 28 28 34 35 34 38 39 41 41 42 43 41 39 38 38 36 33 28 28 29 27 25 21 21 20 19 17 15 14 13 11 12 11 12 11 12 13 13 14 15
11 7 10 11 14 6 10 9 19 26 27 31 37 38 42 40 40 43 46 47 47 44 42 43 40 37 33 32 33 31 29 26 24 24 23 22 20 18 16 16 14 13 13 12 12 14 15 17 17
14 12 15 11 10 13 16 23 26 38 42 42 38 39 42 43 46 47 49 48 47 46 44 42 45 40 39 37 36 37 34 33 29 27 27 26 25 23 20 20 18 17 15 14 14 15 16 17 20
12 13 18 10 9 6 14 19 18 27 53 44 41 40 43 43 38 44 47 50 49 48 50 50 50 47 43 44 43 42 40 36 34 33 31 30 30 28 25 24 23 21 19 19 17 17 17 17 20
13 17 13 8 5 5 17 31 25 8 8 53 49 44 39 38 37 42 47 52 54 54 55 54 57 54 51 49 46 44 42 40 38 36 36 34 33 33 31 29 27 25 24 22 20 18 17 16 18
14 7 10 11 20 15 16 11 7 5 2 10 14 40 40 36 39 41 46 50 51 55 54 55 54 58 59 56 53 50 46 44 46 45 40 36 35 34 35 33 31 29 29 26 24 24 21 19 15
10 12 10 15 15 6 10 8 6 10 12 11 10 19 29 33 34 37 44 49 52 49 48 54 55 55 60 61 63 63 61 58 53 48 44 43 41 40 38 36 35 35 33 32 27 26 24 22 19
5 7 8 9 12 12 4 0 3 13 13 12 10 15 20 31 30 36 38 46 48 44 46 48 55 59 60 63 67 66 67 62 58 53 50 47 44 42 40 39 38 38 36 35 33 29 30 27 25
13 9 14 9 6 2 6 8 3 5 9 11 16 7 10 19 28 35 36 39 44 40 41 45 52 61 63 65 69 72 70 68 65 59 58 53 47 44 44 43 41 40 40 38 36 35 36 34 32
11 10 1 2 2 2 7 5 12 11 12 9 8 14 9 13 23 25 28 31 31 40 43 48 55 61 65 70 73 76 76 73 72 68 65 61 57 53 48 45 45 43 42 42 41 41 39 37 36
10 7 4 2 6 7 6 6 8 9 12 6 8 11 12 16 15 18 15 13 17 28 37 47 55 61 63 69 75 78 79 79 77 75 72 73 68 61 53 49 46 45 43 44 45 46 44 43 42
4 4 5 5 1 4 8 9 11 6 9 3 3 15 22 21 20 18 16 18 21 23 30 36 43 48 53 58 64 72 76 80 79 76 76 78 75 68 64 57 51 48 46 46 46 47 47 46 45
3 6 1 3 4 7 10 5 5 3 9 9 4 12 21 25 26 28 26 21 27 42 45 44 42 41 44 49 54 59 67 73 76 74 75 76 76 74 70 66 59 53 50 50 50 50 49 50 49
4 3 5 0 2 1 7 9 2 8 13 12 16 12 22 32 37 40 44 43 54 58 50 46 39 38 40 43 47 50 57 65 70 73 71 70 70 71 72 70 66 61 57 54 55 55 54 55 52
4 6 1 8 2 2 6 12 6 12 12 3 16 22 24 24 37 48 54 59 55 53 54 47 36 35 34 36 40 46 50 55 64 68 67 64 65 65 68 69 70 70 64 61 60 60 59 58 57
Wind_Direction_850mb
330 3 331 297 270 219 53 76 112 113 100 66 52 42 93 50 18 101 149 136 132 120 46 12 102 92 87 79 76 71 67 52 49 53 47 47 44 44 44 35 32 29 31 32 24 29 29 31 26
347 10 304 267 244 88 24 130 73 71 97 94 64 356 47 81 62 123 134 141 135 114 155 262 105 96 66 68 70 65 58 54 49 45 49 47 48 47 43 37 38 40 33 33 29 29 31 33 32
343 330 288 237 335 36 93 87 98 101 96 87 116 54 43 80 101 119 173 142 153 138 210 230 103 55 49 53 59 60 54 48 46 54 51 49 52 46 38 38 46 41 37 31 31 25 32 31 29
319 266 259 236 134 44 80 95 115 124 100 51 103 94 89 96 114 183 142 134 144 119 240 186 120 76 51 44 59 64 46 38 37 39 38 51 55 54 41 42 42 38 39 35 32 31 31 32 34
298 273 260 241 93 95 67 114 150 103 104 117 341 100 100 135 150 156 137 147 137 158 260 146 122 107 65 56 60 49 34 35 43 40 35 41 39 40 37 39 41 40 40 40 38 41 41 40 40
284 241 276 359 87 84 92 117 91 71 107 94 152 110 119 183 164 152 147 153 159 147 215 233 145 79 55 40 21 19 30 35 38 39 37 36 33 35 38 40 40 39 40 42 42 43 46 46 43
287 300 296 19 107 141 119 127 134 104 114 96 67 99 145 160 177 163 153 159 166 172 178 262 98 64 57 360 7 11 22 33 35 36 37 41 42 41 42 41 39 40 40 39 39 44 50 53 49
317 281 302 22 133 89 111 120 46 331 70 118 137 79 158 175 178 166 167 172 179 183 175 182 244 20 2 346 14 6 15 31 38 36 33 33 41 33 43 38 39 40 40 39 37 37 40 40 42
292 278 88 62 29 92 126 150 131 168 126 121 112 69 150 178 176 172 177 185 192 186 190 203 203 197 181 283 331 345 30 20 46 48 42 42 34 11 25 31 38 39 41 44 42 40 42 42 41
300 354 35 26 30 62 141 258 142 170 180 155 142 127 171 181 180 184 185 192 201 197 191 207 209 218 208 221 296 329 342 4 19 23 29 49 22 16 21 30 36 36 35 38 37 38 38 38 35
14 23 87 51 43 1 128 232 163 204 231 204 190 178 187 188 185 192 193 200 210 217 210 214 214 222 226 231 276 296 305 321 347 7 10 24 24 9 10 10 16 21 25 30 35 36 36 36 29
190 67 8 76 71 316 264 305 189 223 268 136 109 203 195 192 195 194 197 198 207 215 223 220 226 222 227 239 262 283 291 292 284 324 325 332 355 350 356 6 11 17 20 28 33 33 33 35 28
22 105 98 128 159 258 302 264 252 270 221 216 184 194 198 199 202 199 201 202 209 220 229 226 225 228 228 235 248 249 264 271 268 282 275 292 295 316 340 353 357 5 14 19 28 31 28 29 26
57 170 145 175 201 245 262 277 177 252 207 205 195 196 202 205 202 202 201 204 208 217 238 235 230 225 229 236 245 249 248 258 261 264 269 268 277 293 313 320 341 351 3 8 21 21 17 24 20
207 257 178 191 211 236 280 247 230 223 188 199 203 200 204 208 207 208 208 207 212 215 229 241 239 231 232 236 246 248 256 256 259 260 263 266 270 276 284 295 312 334 343 355 6 11 9 12 8
237 207 194 134 168 174 144 290 193 180 181 198 208 211 209 213 210 211 214 209 214 213 219 237 238 240 234 241 246 254 253 254 256 258 260 261 262 265 272 277 289 315 321 337 350 354 357 356 353
214 310 57 153 187 144 203 307 126 167 185 208 212 212 213 211 214 213 212 216 211 214 221 232 238 239 244 241 247 249 252 253 253 254 258 260 261 263 265 275 282 294 304 316 329 335 338 341 344
343 351 345 325 148 201 244 249 248 222 198 209 216 215 214 212 214 215 213 219 218 219 217 232 243 244 241 246 247 252 252 254 254 255 256 260 263 263 264 267 269 278 285 292 308 318 325 332 338
318 311 296 358 91 319 254 265 268 264 195 205 215 226 216 218 220 222 216 217 222 220 222 223 239 247 244 243 247 249 255 258 256 255 259 258 263 265 266 265 267 272 272 278 293 299 313 323 327
294 287 329 58 117 237 277 286 277 247 203 208 206 218 230 214 213 217 218 221 225 229 230 230 235 243 248 249 253 255 257 259 262 261 257 256 259 261 265 264 263 265 270 274 278 288 299 308 312
312 24 9 320 318 253 286 272 131 128 216 281 238 216 220 222 210 214 220 227 233 236 237 241 242 243 247 250 250 251 251 250 254 259 262 261 260 262 262 263 262 262 264 268 270 277 286 289 298
307 20 339 318 344 297 16 299 127 150 145 199 225 224 219 226 219 219 223 229 241 251 248 247 252 250 249 250 249 249 252 253 258 261 266 267 264 263 264 262 260 260 262 265 266 269 275 280 283
349 354 299 303 296 296 132 48 162 151 95 97 139 198 218 222 223 221 227 238 250 258 259 254 254 256 254 250 253 254 253 256 258 256 257 261 262 260 260 263 262 260 259 260 264 264 269 274 277
309 261 224 239 243 267 71 55 291 70 84 126 136 146 194 217 219 223 231 232 248 263 266 264 259 258 257 254 254 256 257 258 257 256 257 259 262 263 261 262 263 261 259 259 260 261 261 267 271
241 284 39 314 309 175 90 336 254 128 142 100 100 149 185 207 206 211 214 230 239 250 262 267 267 265 259 257 256 257 260 259 259 259 258 257 259 261 266 263 263 263 261 260 260 261 262 263 264
329 341 78 196 344 305 154 238 237 132 146 186 225 205 191 187 189 187 194 216 253 260 263 267 269 270 264 261 260 260 260 260 260 259 257 259 261 264 266 266 263 262 259 258 258 259 262 263 265
13 32 0 312 17 330 234 236 90 104 129 69 278 216 221 213 212 212 225 251 278 296 298 286 279 277 272 268 265 263 261 260 260 259 258 258 261 262 263 263 264 262 260 260 260 260 262 263 264
297 303 313 264 12 302 308 312 248 211 107 127 189 236 246 239 238 240 251 279 286 299 304 293 287 282 280 276 271 266 264 264 264 263 260 258 259 260 259 260 261 263 261 259 260 262 262 261 264
168 186 226 151 51 190 325 278 1 49 73 39 359 326 266 256 252 256 267 273 288 297 299 292 281 281 281 280 278 272 266 265 265 264 262 260 260 258 257 257 259 260 261 261 259 262 264 262 262
325 314 335 112 176 292 150 274 123 91 88 280 277 284 288 275 261 265 268 281 293 288 292 296 288 287 288 283 276 275 270 264 263 263 264 262 259 261 259 258 257 257 259 260 260 261 262 263 263